Home   Weather   Fairfield   Past weeks
Flag for USA

Past Weather in Fairfield, Georgia, USA — Yesterday and Last 2 Weeks

Now
82 °F

Clear.


Feels Like: 87 °F
Forecast: 89 / 72 °F
Wind: 3 mph from West

Location: Fulton County Airport-Brown Field

Current Time: Jul 4, 2020 at 10:05:47 pm

Latest Report: Jul 4, 2020 at 8:53 pm


Visibility: 10 mi

Pressure: 29.88 "Hg

Humidity: 72%

Dew Point: 72 °F

Location of FairfieldLocation

Past Weather in Fairfield — Graph

°F

Fairfield Temperature Yesterday

Maximum temperature yesterday: 91 °F (at 2:53 pm)
Minimum temperature yesterday: 72 °F (at 5:53 am)
Average temperature yesterday: 82 °F

High & Low Weather Summary for the Past Weeks

 TemperatureHumidityPressure
High92 °F (Jun 29, 4:53 pm)100% (Jun 27, 6:53 pm)30.21 "Hg (Jun 27, 6:53 pm)
Low62 °F (Jun 20, 6:53 am)36% (Jun 20, 6:53 pm)29.86 "Hg (Jul 3, 6:53 pm)
Average77 °F74%29.99 "Hg
* Reported Jun 19 7:53 pm — Jul 4 7:53 pm, Fairfield. Weather by CustomWeather, © 2020

Note: Actual official high and low records may vary slightly from our data, if they occured in-between our weather recording intervals... More about our weather records

Fairfield Weather History for the Previous 24 Hours

Scroll right to see more
 ConditionsComfort  
Time TempWeatherWind HumidityBarometerVisibility
7:53 pm
Sat, Jul 4
83 °FOvercast.No wind70%29.87 "Hg10 mi
6:53 pm87 °FPartly sunny.3 mph57%29.86 "Hg10 mi
5:53 pm86 °FSunny.5 mph55%29.87 "Hg10 mi
4:53 pm85 °FSunny.8 mph53%29.89 "Hg10 mi
4:09 pm83 °FSunny.7 mph61%29.95 "Hg10 mi
3:53 pm86 °FThundershowers. Sunny.5 mph53%29.91 "Hg10 mi
3:04 pm85 °FThundershowers. Scattered clouds.7 mph57%29.94 "Hg10 mi
2:53 pm84 °FScattered clouds.6 mph65%29.90 "Hg10 mi
2:41 pm83 °FThunderstorms. Overcast.7 mph63%29.95 "Hg10 mi
2:24 pm82 °FOvercast.9 mph74%29.95 "Hg10 mi
2:05 pm79 °FThundershowers. More clouds than sun.8 mph79%29.96 "Hg8 mi
1:53 pm82 °FThunderstorms. Mostly cloudy.15 mph70%29.93 "Hg7 mi
12:53 pm89 °FPartly sunny.6 mph50%29.93 "Hg10 mi
11:53 am89 °FSunny.3 mph53%29.94 "Hg10 mi
10:53 am86 °FSunny.3 mph61%29.94 "Hg10 mi
9:53 am82 °FSunny.3 mph70%29.94 "Hg10 mi
8:53 am78 °FSunny.3 mph76%29.94 "Hg10 mi
7:53 am74 °FSunny.No wind88%29.92 "Hg8 mi
6:53 am72 °FFog.No wind91%29.92 "Hg5 mi
5:53 am73 °FClear.No wind88%29.90 "Hg8 mi
4:53 am73 °FClear.No wind88%29.89 "Hg10 mi
3:53 am76 °FClear.3 mph80%29.90 "Hg10 mi
2:53 am74 °FClear.No wind85%29.91 "Hg10 mi
1:53 am74 °FPassing clouds.No wind88%29.91 "Hg10 mi
12:53 am77 °FClear.No wind77%29.90 "Hg10 mi
11:53 pm
Fri, Jul 3
77 °FClear.No wind77%29.92 "Hg10 mi
10:53 pm79 °FPassing clouds.No wind72%29.91 "Hg10 mi
Weather by CustomWeather, © 2020

See weather overview